Location: Stanford
(52.2833°N, 2.4333°W)
Time: 02:07:15
(UTC+00:00)

SeaSat 1 - Pass Details

Date: 22 January 2021
Orbit: 744 x 747 km, 108.0° (Epoch: 28 February)

Event Time Altitude Azimuth Distance (km) Brightness Sun altitude
Exits shadow 18:27:05 - 20° (NNE) 2,630 5.0 -16.1°
Reaches altitude 10° 18:28:08 10° 14° (NNE) 2,275 4.7 -16.3°
Maximum altitude 18:32:03 24° 322° (NW) 1,515 4.3 -16.9°
Drops below altitude 10° 18:35:57 10° 269° (W) 2,269 6.2 -17.5°
Sets 18:38:34 0° 256° (WSW) 3,190 7.4 -17.9°
